Temp
9 8 8 8 7 7 6 6 7 6 7 8 9 10 10 10 9 9 9 9 9 9 9 9 8 8 8 8 8 8 8 9 9 10 9 8 7 6 5 4 4 5 5 5 5 5 5 5 5 5 4 4 4 4 4 4 5 6 6 6 6 7 6 6 7 7 8 9 9 10 11 11 11 12 12 12 12 12 12 12 12 12 12 11 11
7 7 8 8 7 6 6 6 6 6 7 8 9 9 9 9 9 9 9 9 9 9 9 8 8 8 8 8 8 8 8 8 9 9 8 7 5 5 4 4 4 5 5 5 5 4 4 4 4 4 4 4 4 4 4 4 5 6 6 6 6 7 6 6 5 6 7 8 9 9 10 11 11 12 12 11 12 12 12 12 12 12 12 11 11
6 6 7 6 6 6 6 5 5 6 8 8 8 9 9 9 9 8 8 9 9 8 8 7 8 7 7 7 8 8 8 8 8 8 8 6 4 4 4 4 4 5 5 5 4 4 4 4 4 3 3 3 3 3 4 5 6 5 5 5 5 6 6 6 5 5 5 7 8 9 9 9 10 11 12 11 11 12 12 12 12 12 12 12 11
6 6 6 5 5 5 5 5 5 7 8 8 8 8 9 8 8 8 8 8 8 8 7 7 7 7 7 7 7 7 7 7 7 8 8 6 4 4 4 4 4 4 4 4 4 4 3 3 3 2 2 2 2 3 4 5 5 5 5 5 4 4 5 5 5 5 4 5 7 8 8 8 9 10 11 11 11 11 11 12 12 12 12 12 12
6 5 5 5 5 5 5 5 6 7 8 8 8 8 8 8 8 8 8 8 8 7 7 6 6 7 7 6 7 7 7 7 7 7 7 6 3 3 4 4 4 4 4 3 3 3 3 2 2 2 2 2 1 2 3 4 4 4 4 4 4 4 4 5 5 4 4 4 6 8 8 8 8 9 10 11 11 11 11 12 12 12 11 11 12
6 5 5 5 5 4 4 5 7 8 8 8 8 8 8 8 8 7 7 7 7 7 6 6 6 6 7 6 7 7 7 7 7 7 7 5 3 3 3 3 3 3 3 3 2 2 2 2 2 1 1 1 1 1 2 2 2 3 4 4 4 5 5 5 4 3 3 3 4 6 7 7 8 8 10 10 11 11 11 11 12 12 12 11 12
5 5 5 5 4 4 5 6 7 7 7 7 7 7 7 8 8 7 6 6 5 5 5 5 5 6 6 6 6 6 6 7 6 7 7 5 3 3 3 3 3 3 3 2 2 2 2 1 1 1 1 1 1 1 1 1 1 2 3 3 3 4 4 5 4 3 3 3 3 4 5 6 7 8 9 10 10 11 11 11 11 12 12 12 12
5 5 5 5 4 4 5 6 6 6 7 7 7 7 7 7 7 7 6 5 4 4 4 4 4 5 5 5 6 6 6 6 6 7 7 5 3 3 3 3 3 2 2 2 2 2 1 1 1 1 1 1 1 1 1 1 1 2 2 2 2 2 2 2 3 3 3 3 3 4 4 5 6 7 8 9 10 11 11 11 11 12 12 12 12
5 5 5 4 5 5 6 6 6 6 6 7 7 7 7 7 6 6 6 5 4 4 4 4 4 4 5 5 5 6 6 6 6 6 7 6 4 3 3 2 2 2 2 2 2 1 1 1 1 1 1 1 2 2 2 2 1 1 2 2 1 1 1 1 2 2 3 3 3 4 4 4 5 6 7 8 9 10 10 11 11 11 11 11 11
5 5 5 5 5 5 6 6 6 6 6 6 6 6 6 6 5 5 5 5 4 4 4 4 3 3 4 5 5 5 6 6 6 6 6 5 3 2 2 2 2 2 2 2 1 1 1 1 0 0 1 1 2 2 3 3 2 2 2 1 1 1 1 1 2 2 2 3 3 3 3 4 4 5 5 6 8 8 9 10 11 11 11 11 11
5 5 5 5 5 5 5 5 5 5 6 6 5 6 6 6 5 5 5 5 5 4 4 3 3 3 4 5 5 5 5 5 6 6 6 4 2 2 2 2 2 2 1 1 1 1 0 0 0 0 0 0 1 2 3 3 3 3 2 1 0 1 1 1 2 2 2 2 2 2 3 3 4 4 5 5 6 7 8 9 10 10 11 11 11
5 5 5 5 5 5 5 5 5 5 5 5 5 5 5 5 5 5 5 5 5 4 4 3 2 3 4 5 5 5 5 5 6 6 5 4 2 2 2 2 2 2 1 1 1 0 0 -0 0 0 0 0 0 2 3 3 3 3 2 1 0 1 1 1 1 1 1 1 1 2 2 2 3 3 4 5 5 6 8 9 9 10 10 11 11
5 5 5 5 5 5 5 4 4 4 4 4 4 4 5 5 5 5 5 5 5 4 4 3 3 3 3 4 5 5 5 5 5 5 5 3 2 2 2 2 2 2 1 1 1 0 0 -0 0 0 0 0 1 2 2 2 3 3 2 1 1 1 1 1 1 1 1 1 1 1 1 2 2 2 3 4 4 5 7 8 9 9 10 11 11
5 5 5 5 5 4 4 4 4 4 4 4 4 4 5 5 5 5 5 4 4 4 4 4 3 3 3 4 4 5 5 5 5 5 4 3 2 2 2 2 2 2 2 1 1 0 0 -0 -0 0 0 1 1 2 2 2 2 2 2 2 1 1 0 1 1 1 1 0 0 1 1 1 2 2 3 3 4 5 6 7 9 9 9 10 11
5 5 4 4 4 4 4 4 4 4 4 4 4 4 5 5 5 5 4 4 4 3 4 4 4 3 3 4 4 4 4 4 5 5 4 3 2 2 2 2 2 2 2 2 1 1 0 0 0 0 -0 0 1 1 2 2 1 1 1 1 1 1 1 1 1 1 1 1 0 0 1 1 1 2 2 3 3 4 5 7 8 9 10 10 10
4 4 4 4 4 4 4 4 4 4 4 4 5 4 4 5 5 5 4 4 4 4 4 4 4 4 4 4 4 4 4 4 4 5 4 3 2 2 3 3 3 3 2 2 2 1 1 0 0 0 -0 0 1 1 1 1 0 -0 0 1 1 1 1 1 2 1 1 1 1 1 1 1 2 2 2 3 3 4 5 7 8 9 9 10 10
4 4 4 4 4 4 4 4 3 4 4 5 5 4 4 4 4 4 4 3 3 3 3 4 4 5 4 4 4 4 4 4 4 4 4 4 3 2 3 3 3 3 3 2 2 2 1 0 1 1 0 0 0 0 1 1 -0 -1 -0 0 0 1 0 1 1 1 1 1 1 1 1 1 2 2 2 3 3 4 5 6 7 8 9 10 10
4 4 4 4 4 4 4 4 4 4 4 5 5 5 4 4 4 4 3 3 3 3 3 4 4 4 5 5 4 4 4 4 4 4 4 4 3 2 2 3 3 3 3 2 2 2 1 1 1 1 1 0 0 0 0 0 -0 -0 0 0 0 1 0 -0 -0 0 1 1 1 1 1 1 1 2 2 2 3 3 4 5 6 8 9 10 10
5 6 6 6 5 5 5 5 4 4 4 4 5 5 4 4 4 3 3 3 3 3 2 3 3 3 4 4 4 4 4 4 4 4 3 3 3 2 2 2 2 3 2 2 2 2 1 1 1 2 1 0 0 0 0 0 0 0 0 0 1 1 1 -0 -1 -0 1 1 1 1 1 1 1 1 1 2 2 3 3 4 6 7 8 9 10
6 6 6 6 6 5 5 4 4 4 4 5 5 5 5 4 3 3 3 3 3 3 3 2 2 2 3 3 4 4 3 4 4 4 3 3 3 3 2 2 2 2 2 2 2 2 1 1 1 2 1 1 0 0 0 0 0 0 1 1 0 1 1 -0 -1 -0 -0 0 0 0 -0 0 1 1 1 1 2 2 2 3 4 6 7 8 9
5 5 5 5 5 5 4 4 4 4 5 5 5 5 4 4 3 3 3 3 3 3 3 2 2 2 2 2 3 3 3 3 3 3 3 3 3 3 3 2 2 2 2 2 2 1 1 1 1 2 2 1 1 0 0 0 0 0 1 1 1 1 1 0 -0 -0 -0 -0 -0 -0 -0 -0 0 1 1 1 1 2 2 2 3 4 5 7 8
4 4 4 4 5 5 5 4 4 5 5 5 5 4 4 3 3 3 4 3 3 2 2 2 2 2 2 2 2 3 3 3 3 3 2 2 2 2 2 3 3 2 1 1 1 1 1 1 1 2 2 1 1 0 0 1 1 1 1 1 1 1 0 0 0 -0 -0 -0 -0 -0 -0 -0 -0 0 0 1 1 1 1 1 2 3 4 5 6
4 4 4 5 5 5 5 5 5 5 5 5 4 4 3 3 3 4 4 3 3 3 3 3 3 3 3 2 2 2 2 2 3 3 2 2 2 2 2 3 3 2 1 1 1 1 1 1 2 2 1 1 1 1 1 1 1 1 1 1 1 0 0 0 0 -0 -1 -1 -1 -1 -1 -1 -1 -1 -0 -0 0 1 1 1 1 2 2 3 4
4 4 5 5 5 5 4 5 4 4 4 4 3 3 3 3 3 4 4 4 4 4 4 3 3 3 3 3 3 2 2 2 2 3 3 2 1 2 2 2 3 3 2 1 1 1 1 2 2 1 1 1 1 1 1 1 1 1 1 1 1 1 1 1 1 0 -0 -1 -1 -1 -1 -1 -1 -1 -1 -0 0 0 1 1 1 1 1 2 3
4 4 4 4 4 4 4 4 4 3 3 3 3 3 3 4 4 4 4 4 4 4 4 4 4 4 3 3 3 2 2 1 2 3 3 2 1 2 2 2 3 3 2 1 1 1 1 1 1 1 1 1 1 1 1 1 1 1 1 1 1 1 1 1 1 0 -0 -1 -1 -1 -1 -1 -1 -1 -1 -0 1 1 1 1 1 1 1 2 3
4 4 4 3 3 3 3 3 3 3 3 3 4 4 4 4 4 4 4 4 4 4 4 4 4 4 3 3 3 2 2 2 2 3 3 2 1 1 2 2 2 2 2 2 2 1 1 1 1 1 1 1 1 1 1 1 1 1 1 1 1 1 1 1 1 -0 -0 -1 -1 -1 -1 -1 -1 -1 -0 0 1 1 1 1 1 1 1 1 2
4 3 4 3 3 3 3 3 3 3 3 4 4 4 4 4 4 4 4 4 4 4 4 4 4 4 3 3 3 2 2 3 3 3 3 3 2 2 2 2 2 2 2 2 2 1 1 1 1 1 1 1 1 1 1 1 1 1 1 1 1 1 1 1 1 0 -0 -0 -0 -0 -0 -0 -0 -0 -0 -0 -0 0 0 0 0 0 0 1 1
4 4 4 3 3 3 3 3 3 4 4 4 4 4 3 3 4 4 4 4 4 3 3 3 3 3 3 3 3 2 2 3 4 4 4 4 3 2 2 2 2 2 3 3 2 1 1 2 2 2 2 1 1 1 1 1 1 1 1 1 1 1 1 1 1 1 0 -0 -0 -0 -0 -0 -0 -0 -0 -1 -1 -0 -0 -0 -0 -0 -0 0 0
4 4 4 3 3 3 3 3 4 4 3 3 3 3 3 3 4 4 4 4 4 4 3 3 3 2 2 3 2 2 2 3 3 4 3 3 3 3 2 2 2 2 3 2 2 1 1 2 2 2 2 1 1 1 1 1 1 1 1 1 1 1 1 1 1 1 0 0 0 0 0 0 0 0 -0 -0 -1 -1 -1 -0 -0 -0 -0 -0 -0
4 4 4 3 3 3 4 4 4 3 3 3 3 3 3 4 4 4 4 4 4 4 4 4 3 3 2 3 3 3 3 3 3 3 3 3 3 2 2 2 2 3 3 2 2 1 1 2 2 2 2 1 1 1 1 1 1 1 1 1 1 1 0 0 0 0 0 0 0 0 1 0 0 0 0 -0 -1 -1 -1 -1 -0 -0 -0 -1 -1
4 4 4 4 3 4 4 4 4 4 3 3 3 3 3 3 3 3 3 3 3 3 3 3 3 3 3 3 3 3 3 3 3 3 3 3 3 3 2 2 3 3 3 2 2 2 2 2 2 2 2 1 1 1 1 1 1 1 1 1 1 1 0 0 0 0 0 0 0 0 1 1 0 0 0 0 -0 -1 -1 -1 -1 -1 -1 -1 -1
4 4 4 4 4 4 4 4 4 4 3 3 3 3 3 3 3 3 3 3 3 3 3 3 3 3 3 3 3 3 3 3 3 3 3 3 3 3 3 3 3 3 2 2 2 2 2 2 2 2 2 2 1 1 1 1 1 1 1 1 1 1 0 0 -0 0 0 0 0 0 1 1 1 0 0 0 0 -0 -1 -1 -1 -1 -1 -1 -2
4 4 4 3 4 4 4 4 4 4 4 4 4 3 3 3 3 3 3 3 3 3 3 3 3 3 3 3 3 3 3 3 3 3 3 3 3 3 3 3 3 2 2 2 2 2 2 2 2 2 2 2 1 1 1 1 1 1 1 1 1 1 1 1 1 0 0 0 0 0 1 1 1 1 0 0 0 0 -0 -1 -1 -1 -1 -2 -2
4 4 4 4 4 4 4 4 4 4 4 4 4 5 4 4 4 3 3 3 3 3 3 3 3 3 3 3 3 3 3 3 3 3 3 3 3 3 3 2 2 2 2 2 2 2 2 2 2 2 2 1 1 1 1 1 1 1 1 1 1 1 1 1 1 1 0 -0 0 0 0 1 1 1 1 0 0 0 -0 -1 -1 -1 -1 -1 -1
4 4 3 4 4 4 4 4 4 4 4 4 5 5 5 4 4 4 4 4 4 3 3 3 3 3 3 3 3 3 3 3 3 3 3 3 3 3 3 2 2 2 2 2 2 2 2 2 2 2 2 1 1 1 1 1 1 1 1 0 1 1 1 1 2 1 0 -0 -0 0 0 1 1 1 1 1 0 0 0 -0 -0 -1 -1 -1 -1
4 3 3 4 4 4 4 4 4 4 4 4 4 4 4 4 4 4 4 4 4 4 4 3 3 3 3 3 3 3 3 3 3 3 3 3 3 3 2 2 2 3 3 2 2 2 2 2 2 2 1 1 1 1 1 1 1 1 1 0 0 1 1 1 2 2 1 0 -0 0 0 0 1 1 1 1 1 1 0 0 0 -0 -0 -0 -1
4 3 4 4 4 4 4 4 4 4 4 4 4 4 4 4 4 4 4 4 4 4 4 4 3 3 3 3 3 3 3 3 3 3 3 3 3 2 2 2 2 2 3 2 2 2 2 2 2 1 1 1 1 1 1 1 1 1 1 1 1 1 2 1 2 2 1 1 0 0 -0 0 0 0 1 1 1 1 1 0 0 0 0 -0 -0
4 4 4 4 4 4 4 4 4 4 4 4 4 4 4 4 4 4 4 4 4 4 4 4 4 4 3 3 3 3 3 3 3 3 3 3 2 2 2 2 2 2 2 2 2 2 2 2 2 1 1 1 1 1 1 1 1 1 1 1 1 2 2 1 2 2 2 1 1 1 0 0 0 0 0 1 1 1 1 1 1 1 1 0 0
4 4 4 4 4 4 4 4 4 4 3 4 4 4 4 4 4 4 4 4 4 4 4 4 4 4 4 4 3 3 3 3 3 3 3 2 2 2 2 3 2 2 2 2 2 2 2 2 1 1 1 1 1 1 1 1 1 1 1 1 1 2 2 1 1 2 2 1 1 1 1 0 -0 0 0 0 0 1 1 1 1 1 1 1 1
4 4 4 4 4 4 4 4 4 4 4 4 5 4 4 4 4 4 4 4 4 4 4 4 4 4 4 3 3 3 3 3 3 3 3 3 2 2 3 3 2 2 2 2 2 2 2 2 1 1 1 1 1 1 1 1 1 1 1 1 1 1 1 1 1 2 2 1 1 1 1 1 -0 -0 0 0 -0 0 1 1 1 1 1 1 1
4 4 3 4 4 4 4 4 4 4 4 4 5 5 4 4 4 4 4 4 4 4 4 4 4 4 4 3 3 3 3 3 3 3 3 3 3 3 3 3 2 2 2 2 2 2 1 2 1 1 1 2 2 2 1 1 1 1 1 1 1 1 1 1 1 1 2 1 1 1 1 1 0 -0 0 0 -0 -0 0 0 1 1 1 1 1
5 4 3 3 3 4 4 4 4 4 4 4 4 5 5 4 4 4 4 4 4 4 4 4 4 4 4 4 3 3 3 3 3 3 3 3 3 3 3 2 2 2 2 2 2 2 2 2 2 1 1 2 2 2 1 1 1 1 1 1 1 1 1 1 1 1 1 2 1 1 1 1 1 0 -0 0 -0 -0 0 0 0 0 1 1 1
5 4 4 3 3 4 4 4 4 4 4 4 4 4 4 4 4 4 4 4 4 4 4 4 4 4 4 4 3 3 3 3 3 3 3 3 3 3 3 3 3 2 2 2 2 2 2 2 2 2 2 2 2 2 2 2 2 1 1 1 1 1 1 1 1 1 1 2 1 1 1 1 1 0 0 0 -0 -0 -0 0 0 0 0 1 1
5 5 4 4 4 4 4 4 5 5 5 4 4 4 4 4 4 4 4 4 4 4 4 4 4 4 4 4 3 3 3 3 3 3 3 3 3 3 3 3 3 2 2 2 2 1 2 2 2 2 3 3 2 2 2 1 1 2 2 1 1 1 1 1 1 1 1 1 1 1 1 0 0 1 1 0 -0 -0 -0 -0 -0 -0 -0 -0 0
5 5 5 5 5 4 4 5 5 5 5 4 4 4 4 4 4 4 5 5 4 4 4 4 4 4 4 4 4 3 3 3 3 4 4 4 3 3 3 3 3 2 2 2 2 1 1 2 2 2 2 2 2 2 2 1 1 1 1 1 1 1 1 2 1 1 1 1 1 1 1 0 0 0 1 1 0 0 0 0 -0 -0 -0 -0 -0
5 5 5 5 5 5 5 5 5 5 5 4 4 4 4 4 4 4 5 5 5 5 5 4 4 4 4 4 4 4 4 4 4 4 4 4 3 3 3 3 3 3 2 2 2 1 1 2 2 2 2 2 2 2 2 2 1 0 0 0 1 1 2 2 1 1 1 1 1 1 1 1 0 -0 0 1 0 0 1 1 0 -0 -0 -0 -0
5 5 5 5 5 5 5 5 5 5 5 5 5 5 5 5 5 5 5 5 4 4 4 4 5 5 4 4 4 4 4 4 4 4 4 4 4 3 3 3 3 3 2 2 2 1 1 1 2 2 2 2 2 2 2 2 1 0 0 -0 -0 0 1 1 1 1 1 1 1 1 1 1 0 0 0 1 0 0 0 0 0 0 -0 -1 -1
5 5 5 5 5 5 5 5 5 5 5 5 5 5 5 5 5 5 5 5 4 4 4 4 4 4 5 5 4 4 4 4 4 4 4 4 4 3 3 3 3 2 2 2 2 2 2 2 2 2 2 2 2 2 2 2 1 1 0 -0 -0 0 1 1 1 1 1 1 1 1 1 1 1 0 1 1 0 0 0 0 0 0 -0 -1 -1
5 5 5 5 5 5 5 5 5 5 5 5 5 5 5 5 5 5 5 5 5 5 5 5 5 5 5 5 5 5 4 4 4 4 4 4 4 4 3 3 3 2 2 2 2 2 2 2 2 2 2 2 2 2 2 2 2 1 1 0 0 1 1 1 1 1 1 1 1 1 1 1 1 1 0 0 0 0 0 0 0 0 -0 -1 -1
5 5 5 5 5 5 5 5 5 5 5 5 5 5 5 5 5 5 5 5 5 5 5 5 5 5 5 5 5 5 4 4 4 4 4 4 4 4 4 3 3 3 2 2 2 2 2 2 2 2 2 2 2 2 2 2 2 2 1 1 1 1 1 1 1 1 1 1 1 0 0 0 0 0 0 0 0 0 0 -0 -0 0 0 -0 -1
5 5 5 5 5 5 5 5 5 5 5 5 5 5 5 5 5 5 5 5 5 5 5 5 5 5 5 5 5 5 5 5 4 4 4 4 4 4 4 4 4 3 3 2 2 1 1 2 2 2 2 2 2 2 2 2 2 2 1 1 1 1 1 1 1 1 0 0 0 0 0 0 0 0 0 0 -0 -0 -0 -0 -0 0 0 -0 -1
Height
1528 1529 1529 1530 1532 1533 1533 1534 1534 1535 1535 1536 1537 1538 1538 1539 1540 1541 1541 1542 1542 1542 1542 1542 1541 1541 1540 1539 1538 1536 1535 1533 1532 1530 1529 1528 1526 1525 1524 1523 1523 1522 1522 1521 1520 1519 1518 1516 1514 1512 1510 1508 1506 1504 1502 1500 1498 1496 1495 1493 1491 1490 1488 1486 1481 1474 1471 1471 1470 1468 1467 1467 1466 1466 1465 1462 1462 1461 1461 1460 1460 1460 1460 1461 1461
1528 1529 1530 1531 1532 1533 1534 1534 1535 1536 1536 1538 1539 1539 1539 1540 1541 1542 1542 1542 1542 1543 1543 1542 1542 1541 1540 1539 1538 1537 1535 1533 1532 1530 1529 1528 1527 1526 1525 1524 1524 1523 1523 1522 1520 1519 1517 1515 1514 1511 1508 1506 1504 1502 1500 1498 1495 1493 1492 1490 1488 1487 1486 1483 1479 1474 1468 1466 1466 1464 1463 1464 1462 1462 1462 1460 1458 1458 1457 1456 1456 1456 1455 1456 1456
1529 1529 1530 1532 1533 1534 1535 1535 1536 1537 1538 1539 1539 1540 1540 1541 1542 1542 1542 1543 1543 1543 1543 1543 1543 1542 1541 1540 1538 1537 1535 1534 1532 1531 1529 1528 1528 1527 1526 1526 1525 1524 1523 1522 1520 1519 1517 1515 1513 1510 1508 1505 1503 1501 1499 1496 1494 1492 1490 1488 1486 1484 1483 1481 1478 1474 1468 1464 1463 1461 1460 1460 1458 1457 1458 1457 1455 1454 1453 1452 1452 1451 1451 1451 1451
1529 1530 1531 1533 1534 1535 1535 1535 1537 1538 1539 1540 1540 1541 1541 1541 1542 1542 1543 1543 1543 1543 1544 1543 1543 1542 1541 1540 1539 1537 1536 1534 1533 1531 1529 1528 1528 1528 1527 1527 1526 1525 1523 1522 1520 1519 1517 1515 1513 1510 1507 1504 1502 1500 1498 1495 1493 1491 1488 1486 1484 1481 1479 1477 1475 1472 1467 1462 1460 1459 1458 1456 1454 1453 1453 1452 1451 1450 1449 1448 1447 1447 1446 1446 1446
1530 1530 1532 1533 1534 1535 1536 1536 1538 1539 1539 1540 1541 1541 1542 1542 1542 1543 1543 1544 1544 1544 1544 1544 1544 1543 1542 1541 1539 1538 1536 1535 1533 1532 1530 1529 1529 1529 1528 1527 1526 1525 1523 1522 1520 1518 1516 1515 1512 1510 1507 1504 1501 1499 1496 1494 1492 1490 1487 1484 1482 1479 1476 1474 1472 1469 1466 1461 1457 1455 1454 1453 1451 1450 1449 1448 1446 1446 1445 1444 1443 1442 1442 1441 1441
1530 1531 1532 1534 1535 1537 1537 1538 1539 1539 1540 1541 1541 1542 1543 1543 1543 1543 1544 1544 1544 1545 1545 1544 1544 1543 1542 1541 1540 1538 1537 1535 1534 1532 1530 1529 1529 1529 1528 1527 1526 1525 1524 1522 1520 1518 1516 1514 1512 1509 1507 1504 1501 1498 1496 1494 1491 1488 1485 1482 1480 1477 1473 1471 1468 1466 1463 1459 1455 1453 1451 1450 1448 1446 1446 1445 1443 1442 1441 1439 1438 1438 1437 1437 1437
1531 1532 1534 1535 1537 1538 1539 1539 1540 1540 1541 1542 1542 1543 1543 1543 1543 1544 1544 1545 1545 1546 1546 1545 1545 1544 1543 1541 1540 1539 1537 1535 1534 1532 1530 1529 1530 1531 1529 1528 1527 1525 1524 1522 1520 1519 1516 1514 1512 1509 1507 1504 1502 1499 1496 1493 1490 1487 1484 1480 1477 1474 1471 1468 1466 1463 1461 1457 1454 1451 1448 1447 1446 1443 1442 1440 1438 1437 1436 1434 1432 1432 1432 1432 1432
1531 1533 1535 1536 1537 1539 1540 1540 1541 1541 1542 1542 1543 1543 1543 1543 1544 1544 1545 1545 1546 1547 1547 1546 1545 1544 1543 1542 1540 1539 1537 1535 1533 1532 1530 1529 1530 1531 1530 1529 1528 1526 1524 1523 1521 1519 1516 1514 1512 1510 1507 1505 1502 1499 1496 1492 1488 1485 1482 1479 1475 1472 1469 1466 1464 1461 1459 1456 1452 1449 1446 1444 1442 1440 1438 1437 1434 1432 1431 1430 1428 1427 1427 1427 1427
1532 1533 1535 1536 1538 1539 1540 1541 1542 1542 1543 1543 1543 1543 1544 1544 1544 1545 1546 1546 1547 1547 1547 1547 1546 1545 1544 1542 1541 1539 1537 1534 1533 1531 1530 1529 1529 1530 1531 1530 1528 1526 1525 1523 1521 1519 1517 1514 1512 1509 1506 1504 1501 1498 1496 1493 1489 1485 1481 1478 1474 1471 1468 1466 1463 1460 1457 1454 1451 1448 1445 1441 1439 1437 1436 1434 1431 1429 1428 1426 1424 1423 1423 1423 1423
1532 1533 1535 1537 1538 1540 1541 1542 1543 1543 1543 1544 1544 1544 1544 1544 1545 1546 1547 1547 1547 1547 1548 1548 1547 1546 1545 1543 1541 1539 1537 1535 1534 1532 1531 1530 1529 1530 1532 1531 1529 1527 1525 1523 1521 1519 1516 1514 1511 1509 1506 1503 1500 1497 1495 1492 1488 1485 1481 1477 1474 1471 1468 1465 1462 1459 1456 1453 1450 1446 1443 1439 1437 1435 1433 1430 1428 1426 1425 1424 1423 1421 1419 1418 1418
1532 1534 1536 1538 1539 1541 1542 1542 1543 1543 1544 1544 1544 1545 1545 1545 1546 1547 1548 1548 1548 1548 1548 1548 1547 1547 1545 1544 1542 1540 1538 1537 1536 1534 1532 1531 1530 1530 1532 1532 1530 1528 1526 1524 1522 1519 1516 1514 1511 1509 1506 1502 1498 1495 1492 1489 1486 1483 1479 1476 1474 1471 1468 1465 1461 1458 1455 1451 1447 1444 1441 1436 1434 1432 1430 1426 1424 1423 1421 1421 1420 1418 1416 1415 1415
1533 1535 1537 1539 1540 1541 1542 1543 1543 1544 1544 1545 1545 1545 1546 1546 1547 1547 1548 1548 1548 1548 1549 1548 1548 1547 1546 1544 1542 1541 1539 1538 1537 1535 1533 1532 1531 1531 1532 1532 1530 1529 1527 1525 1523 1520 1517 1514 1512 1509 1505 1501 1497 1494 1490 1486 1484 1480 1477 1474 1473 1471 1468 1465 1461 1457 1453 1449 1445 1442 1439 1434 1431 1429 1427 1423 1421 1418 1416 1414 1414 1414 1412 1412 1412
1534 1536 1538 1539 1540 1542 1543 1544 1544 1545 1545 1546 1546 1546 1546 1546 1547 1548 1548 1549 1549 1550 1549 1549 1548 1548 1547 1545 1543 1542 1540 1539 1538 1537 1534 1533 1533 1532 1533 1533 1532 1530 1528 1526 1524 1521 1518 1515 1511 1508 1504 1501 1497 1492 1488 1485 1481 1478 1475 1473 1472 1469 1467 1464 1460 1456 1452 1448 1443 1439 1436 1433 1428 1425 1423 1421 1417 1414 1411 1409 1409 1409 1409 1408 1408
1535 1536 1538 1539 1540 1541 1543 1544 1545 1546 1546 1546 1546 1546 1546 1546 1547 1547 1548 1549 1550 1551 1550 1549 1549 1548 1547 1545 1544 1543 1542 1540 1539 1538 1535 1534 1534 1533 1534 1534 1533 1531 1530 1527 1525 1522 1519 1515 1512 1508 1505 1501 1497 1492 1488 1484 1480 1477 1475 1472 1470 1468 1465 1462 1458 1454 1450 1446 1442 1437 1434 1431 1426 1422 1419 1417 1414 1411 1408 1406 1404 1404 1404 1404 1404
1534 1536 1537 1539 1540 1541 1543 1545 1546 1547 1547 1547 1547 1547 1547 1546 1546 1547 1548 1550 1551 1552 1551 1550 1549 1548 1547 1546 1545 1544 1543 1542 1541 1539 1537 1535 1535 1535 1536 1535 1534 1532 1530 1528 1526 1523 1519 1516 1512 1509 1506 1502 1499 1494 1489 1485 1481 1478 1475 1472 1469 1466 1463 1460 1456 1452 1448 1444 1440 1436 1431 1428 1424 1419 1416 1413 1411 1407 1404 1402 1401 1400 1400 1400 1401
1535 1536 1538 1540 1541 1543 1544 1545 1546 1547 1547 1547 1547 1547 1547 1546 1546 1547 1548 1550 1552 1552 1552 1551 1549 1548 1547 1546 1546 1545 1544 1543 1542 1540 1538 1536 1535 1536 1537 1536 1535 1533 1531 1529 1527 1523 1520 1517 1514 1510 1508 1504 1500 1496 1491 1486 1482 1479 1475 1472 1468 1465 1461 1458 1455 1452 1448 1443 1439 1434 1430 1425 1421 1417 1414 1410 1407 1403 1399 1397 1397 1397 1396 1396 1397
1535 1536 1538 1540 1541 1543 1545 1546 1547 1547 1548 1548 1548 1548 1547 1547 1547 1548 1549 1551 1552 1552 1552 1551 1550 1549 1548 1547 1546 1546 1545 1544 1543 1541 1540 1538 1536 1537 1538 1537 1536 1534 1532 1530 1528 1524 1521 1519 1515 1512 1509 1505 1501 1497 1492 1488 1484 1481 1477 1472 1468 1464 1460 1456 1453 1450 1447 1443 1437 1432 1428 1424 1419 1414 1411 1408 1404 1399 1395 1393 1393 1393 1392 1392 1393
1534 1535 1537 1538 1540 1542 1545 1546 1547 1548 1548 1548 1548 1548 1548 1547 1548 1548 1550 1551 1552 1553 1552 1552 1551 1549 1548 1548 1547 1547 1546 1545 1544 1542 1541 1540 1537 1537 1539 1538 1536 1535 1533 1531 1529 1526 1523 1520 1517 1513 1509 1506 1502 1498 1494 1490 1486 1482 1478 1474 1470 1465 1460 1456 1451 1447 1444 1440 1435 1430 1426 1422 1417 1412 1408 1405 1402 1398 1394 1391 1390 1389 1389 1389 1389
1533 1535 1536 1537 1539 1541 1544 1546 1547 1548 1549 1549 1549 1548 1548 1548 1549 1550 1551 1552 1553 1553 1553 1552 1552 1550 1549 1548 1548 1547 1547 1546 1545 1544 1543 1542 1539 1538 1538 1538 1536 1535 1534 1531 1530 1527 1524 1521 1518 1515 1511 1507 1504 1500 1496 1493 1489 1485 1481 1477 1472 1468 1463 1457 1453 1447 1442 1438 1433 1429 1424 1420 1416 1411 1407 1403 1400 1397 1394 1390 1387 1386 1386 1386 1386
1534 1536 1537 1538 1540 1542 1544 1546 1548 1549 1549 1549 1549 1548 1548 1549 1550 1551 1552 1553 1553 1553 1553 1553 1552 1551 1551 1550 1549 1548 1547 1546 1546 1545 1544 1543 1541 1539 1538 1537 1536 1535 1534 1532 1530 1528 1525 1522 1519 1515 1512 1508 1505 1502 1499 1496 1492 1489 1485 1480 1475 1471 1466 1461 1456 1451 1445 1440 1435 1430 1425 1419 1415 1412 1406 1401 1398 1397 1393 1389 1386 1385 1385 1384 1384
1535 1537 1538 1539 1541 1542 1544 1547 1548 1549 1549 1549 1549 1549 1549 1550 1550 1552 1553 1553 1553 1554 1554 1553 1553 1552 1552 1551 1550 1549 1548 1548 1547 1546 1545 1544 1542 1540 1539 1537 1535 1535 1534 1533 1531 1528 1526 1523 1520 1517 1513 1510 1507 1504 1501 1498 1495 1492 1488 1483 1480 1475 1469 1464 1459 1453 1448 1442 1436 1431 1425 1419 1415 1412 1407 1402 1399 1396 1393 1390 1387 1385 1384 1384 1384
1536 1537 1538 1540 1542 1543 1545 1547 1548 1549 1550 1549 1549 1549 1550 1551 1552 1552 1553 1553 1554 1554 1554 1554 1554 1554 1554 1553 1552 1551 1550 1549 1549 1548 1546 1544 1543 1541 1540 1538 1536 1535 1535 1533 1531 1529 1526 1524 1521 1518 1514 1511 1508 1506 1503 1500 1497 1494 1491 1487 1483 1478 1472 1467 1462 1456 1450 1444 1438 1433 1427 1421 1416 1412 1409 1405 1401 1397 1394 1392 1390 1388 1386 1386 1385
1536 1537 1539 1540 1542 1544 1546 1547 1548 1549 1550 1550 1550 1550 1551 1552 1553 1554 1554 1555 1555 1555 1555 1555 1556 1556 1555 1555 1554 1553 1552 1551 1550 1549 1547 1545 1544 1543 1541 1540 1538 1535 1534 1534 1532 1530 1527 1525 1522 1519 1515 1513 1510 1507 1505 1502 1499 1496 1492 1488 1484 1479 1474 1470 1465 1459 1453 1447 1441 1436 1430 1424 1420 1416 1412 1408 1405 1401 1398 1396 1394 1392 1390 1387 1385
1536 1537 1539 1541 1543 1545 1547 1548 1549 1549 1550 1551 1551 1552 1553 1554 1555 1555 1556 1556 1556 1556 1556 1557 1557 1557 1557 1556 1556 1555 1555 1553 1552 1550 1547 1546 1545 1544 1542 1540 1538 1536 1535 1534 1532 1530 1528 1525 1523 1520 1517 1514 1511 1509 1507 1504 1500 1497 1493 1489 1485 1481 1478 1474 1468 1462 1456 1450 1444 1439 1435 1430 1425 1420 1416 1412 1408 1405 1402 1398 1396 1393 1391 1389 1387
1536 1538 1541 1543 1544 1546 1547 1548 1549 1550 1551 1552 1553 1553 1555 1555 1556 1556 1557 1557 1557 1557 1558 1558 1558 1558 1558 1558 1557 1557 1556 1554 1552 1550 1548 1546 1546 1545 1542 1540 1539 1537 1535 1534 1532 1530 1529 1526 1523 1521 1519 1516 1513 1511 1508 1505 1502 1499 1495 1491 1488 1484 1480 1477 1471 1465 1459 1454 1449 1445 1440 1436 1431 1427 1422 1416 1411 1407 1403 1401 1398 1395 1394 1393 1390
1537 1540 1542 1544 1545 1547 1548 1549 1550 1551 1552 1553 1554 1555 1556 1556 1557 1557 1557 1557 1557 1557 1558 1558 1558 1558 1559 1558 1558 1557 1556 1554 1553 1551 1549 1547 1546 1545 1543 1541 1539 1537 1536 1535 1532 1530 1529 1527 1525 1523 1520 1517 1514 1512 1510 1506 1503 1500 1497 1493 1490 1486 1483 1479 1474 1469 1464 1459 1455 1451 1446 1442 1438 1432 1426 1420 1414 1410 1407 1405 1402 1400 1398 1397 1393
1538 1540 1543 1544 1546 1547 1548 1549 1550 1551 1553 1555 1555 1556 1556 1556 1556 1557 1557 1558 1558 1558 1558 1558 1558 1559 1559 1559 1559 1558 1556 1554 1553 1551 1549 1547 1545 1544 1543 1541 1539 1538 1537 1535 1532 1530 1530 1529 1526 1524 1522 1519 1516 1514 1511 1508 1504 1502 1498 1495 1493 1489 1485 1482 1478 1474 1470 1465 1461 1456 1452 1448 1443 1436 1430 1425 1421 1417 1415 1412 1408 1405 1404 1401 1397
1538 1540 1543 1544 1546 1547 1548 1549 1551 1552 1554 1555 1555 1555 1555 1555 1555 1555 1556 1556 1557 1558 1558 1558 1559 1559 1559 1559 1559 1558 1556 1554 1552 1551 1549 1547 1545 1544 1542 1541 1540 1538 1537 1535 1532 1531 1531 1530 1528 1525 1523 1520 1517 1514 1512 1509 1506 1504 1501 1497 1495 1492 1488 1485 1482 1478 1474 1470 1466 1461 1457 1452 1447 1442 1438 1433 1429 1425 1422 1418 1413 1410 1408 1404 1401
1539 1541 1543 1544 1546 1547 1548 1550 1552 1553 1554 1554 1553 1553 1554 1554 1554 1555 1555 1556 1556 1557 1557 1557 1558 1558 1558 1558 1557 1557 1556 1554 1552 1551 1549 1547 1545 1544 1542 1541 1540 1539 1538 1535 1533 1532 1532 1531 1529 1526 1524 1522 1518 1516 1514 1511 1508 1506 1503 1500 1497 1494 1490 1487 1484 1481 1477 1473 1470 1466 1461 1457 1453 1449 1445 1440 1436 1433 1428 1423 1419 1415 1412 1409 1407
1539 1541 1543 1544 1546 1547 1549 1551 1552 1553 1553 1552 1553 1553 1554 1554 1555 1556 1556 1557 1557 1557 1557 1557 1557 1557 1557 1557 1556 1556 1555 1554 1552 1551 1549 1548 1546 1544 1543 1543 1542 1540 1539 1536 1534 1534 1533 1532 1530 1528 1526 1524 1521 1518 1516 1513 1510 1508 1505 1502 1499 1495 1492 1489 1486 1484 1480 1477 1474 1470 1466 1462 1459 1455 1451 1447 1443 1440 1435 1429 1426 1422 1417 1414 1414
1539 1541 1543 1544 1546 1548 1549 1551 1551 1552 1552 1552 1553 1554 1554 1555 1556 1556 1557 1557 1558 1558 1558 1558 1557 1557 1557 1557 1556 1555 1554 1553 1552 1551 1549 1548 1547 1545 1544 1544 1543 1541 1539 1537 1536 1536 1535 1533 1532 1530 1528 1526 1523 1520 1518 1516 1513 1510 1507 1504 1501 1498 1495 1491 1488 1486 1484 1480 1477 1474 1471 1467 1464 1460 1456 1453 1450 1446 1442 1437 1433 1429 1425 1423 1422
1539 1541 1542 1544 1546 1548 1549 1550 1551 1552 1553 1553 1554 1555 1555 1556 1557 1557 1558 1558 1558 1558 1558 1558 1557 1557 1557 1556 1555 1555 1554 1553 1552 1551 1550 1549 1548 1546 1546 1545 1543 1542 1540 1538 1538 1538 1536 1535 1533 1531 1529 1527 1525 1522 1520 1518 1516 1513 1510 1507 1504 1500 1498 1494 1491 1489 1486 1483 1480 1477 1474 1472 1469 1465 1462 1459 1455 1452 1448 1444 1440 1437 1434 1432 1430
1539 1540 1542 1544 1545 1547 1549 1550 1551 1552 1553 1554 1555 1556 1556 1557 1557 1557 1558 1558 1558 1558 1558 1557 1557 1557 1557 1556 1555 1555 1554 1553 1552 1551 1550 1549 1548 1547 1546 1545 1544 1542 1540 1539 1540 1539 1537 1536 1535 1533 1531 1529 1526 1524 1522 1520 1518 1515 1512 1510 1507 1503 1500 1497 1493 1490 1488 1486 1484 1481 1478 1476 1473 1470 1467 1464 1460 1457 1454 1451 1448 1445 1442 1439 1437
1538 1540 1541 1543 1545 1547 1548 1550 1551 1552 1553 1555 1556 1557 1558 1558 1558 1557 1557 1557 1558 1558 1558 1558 1558 1557 1557 1556 1556 1555 1554 1553 1552 1551 1550 1549 1549 1548 1546 1545 1544 1543 1542 1541 1541 1540 1539 1537 1535 1534 1532 1530 1528 1526 1523 1522 1520 1517 1514 1512 1510 1506 1503 1500 1496 1493 1490 1489 1487 1484 1482 1480 1477 1474 1471 1468 1465 1463 1460 1457 1455 1452 1450 1447 1445
1538 1539 1541 1543 1545 1547 1548 1549 1551 1552 1553 1554 1555 1556 1557 1558 1558 1559 1558 1558 1558 1557 1557 1557 1557 1557 1557 1556 1556 1555 1554 1553 1553 1552 1550 1550 1549 1548 1547 1546 1546 1545 1544 1543 1543 1541 1540 1538 1536 1535 1533 1531 1529 1527 1525 1523 1521 1518 1516 1514 1512 1508 1505 1503 1500 1496 1493 1492 1490 1487 1485 1483 1481 1478 1476 1473 1470 1468 1466 1463 1461 1459 1457 1455 1453
1537 1539 1540 1543 1545 1546 1548 1549 1551 1552 1553 1554 1555 1556 1557 1557 1558 1559 1559 1559 1559 1559 1558 1557 1556 1557 1557 1556 1555 1555 1554 1553 1553 1552 1551 1550 1549 1548 1547 1547 1547 1546 1546 1545 1543 1542 1541 1539 1537 1536 1534 1532 1530 1528 1526 1524 1522 1520 1517 1515 1513 1510 1507 1505 1503 1499 1497 1495 1493 1490 1488 1486 1484 1482 1480 1478 1475 1473 1471 1469 1467 1465 1463 1461 1459
1537 1538 1540 1543 1545 1546 1548 1549 1550 1551 1552 1553 1554 1555 1556 1557 1558 1558 1558 1559 1559 1559 1559 1558 1557 1556 1556 1555 1555 1555 1555 1554 1553 1552 1551 1550 1549 1548 1548 1548 1548 1547 1546 1545 1543 1542 1541 1540 1538 1536 1535 1533 1531 1529 1527 1525 1523 1521 1518 1516 1514 1512 1509 1507 1505 1502 1500 1498 1496 1493 1491 1490 1488 1486 1484 1482 1480 1478 1476 1474 1472 1470 1469 1466 1464
1537 1538 1540 1542 1544 1546 1547 1548 1549 1550 1551 1553 1554 1555 1556 1556 1557 1557 1558 1558 1557 1558 1558 1558 1557 1557 1556 1555 1554 1554 1554 1553 1552 1551 1550 1550 1549 1549 1549 1549 1548 1547 1546 1545 1543 1542 1541 1540 1538 1537 1535 1533 1531 1530 1528 1526 1524 1522 1520 1517 1516 1513 1511 1509 1507 1505 1502 1500 1498 1496 1494 1493 1491 1489 1487 1486 1484 1483 1481 1479 1477 1475 1473 1471 1469
1536 1537 1539 1541 1543 1545 1547 1547 1548 1550 1551 1552 1554 1555 1555 1556 1556 1557 1557 1557 1557 1557 1557 1557 1557 1557 1557 1555 1555 1554 1554 1553 1552 1552 1551 1551 1550 1550 1550 1549 1548 1547 1546 1545 1544 1542 1541 1540 1539 1537 1535 1533 1532 1530 1529 1527 1525 1523 1521 1519 1517 1514 1512 1510 1509 1506 1504 1502 1500 1498 1496 1495 1494 1492 1490 1489 1487 1486 1484 1483 1482 1480 1478 1477 1475
1536 1537 1538 1540 1542 1545 1546 1547 1548 1549 1551 1552 1553 1554 1554 1555 1555 1556 1556 1556 1556 1556 1556 1556 1557 1557 1556 1555 1554 1554 1554 1553 1553 1553 1552 1551 1550 1550 1549 1548 1548 1546 1545 1544 1543 1542 1541 1540 1539 1537 1535 1534 1532 1531 1529 1527 1525 1523 1522 1520 1518 1516 1514 1512 1510 1508 1506 1504 1502 1500 1498 1496 1496 1494 1492 1491 1490 1488 1486 1485 1484 1483 1481 1481 1480
1535 1536 1537 1539 1542 1544 1545 1547 1548 1549 1550 1551 1552 1553 1553 1554 1554 1555 1555 1555 1555 1555 1555 1555 1555 1555 1554 1553 1553 1553 1552 1552 1552 1552 1552 1551 1550 1549 1549 1548 1547 1546 1545 1544 1543 1542 1540 1539 1538 1537 1535 1534 1532 1531 1529 1527 1526 1524 1523 1521 1519 1517 1515 1513 1511 1510 1507 1505 1504 1502 1500 1498 1497 1496 1494 1493 1492 1491 1489 1487 1486 1485 1484 1483 1482
1535 1535 1536 1538 1540 1542 1545 1546 1547 1548 1549 1550 1551 1552 1552 1553 1553 1553 1553 1554 1554 1554 1554 1554 1554 1553 1552 1552 1552 1552 1551 1550 1551 1551 1551 1550 1549 1549 1548 1547 1546 1545 1544 1543 1542 1541 1540 1538 1537 1536 1535 1533 1532 1530 1529 1528 1526 1525 1523 1522 1520 1518 1516 1514 1513 1511 1509 1507 1505 1504 1502 1500 1499 1498 1496 1495 1494 1492 1491 1489 1489 1488 1487 1485 1484
1534 1535 1536 1538 1540 1541 1544 1545 1546 1547 1548 1549 1550 1550 1551 1551 1552 1552 1552 1552 1552 1552 1552 1553 1553 1552 1551 1550 1550 1550 1550 1549 1549 1549 1549 1549 1548 1548 1547 1546 1545 1545 1544 1542 1541 1540 1539 1538 1537 1536 1534 1533 1532 1530 1529 1528 1526 1525 1524 1522 1520 1519 1517 1515 1514 1512 1510 1508 1506 1505 1503 1502 1500 1499 1498 1496 1495 1494 1493 1491 1490 1490 1489 1488 1487
1534 1535 1536 1538 1539 1541 1543 1544 1545 1546 1547 1548 1548 1549 1549 1550 1550 1550 1551 1551 1551 1551 1551 1551 1551 1551 1550 1549 1548 1548 1548 1548 1548 1548 1548 1548 1547 1546 1546 1545 1544 1544 1542 1541 1540 1539 1538 1537 1536 1535 1534 1533 1531 1530 1529 1528 1526 1525 1524 1522 1521 1519 1517 1516 1514 1512 1511 1509 1507 1506 1505 1503 1502 1500 1499 1497 1496 1495 1494 1492 1491 1491 1490 1490 1488
1533 1535 1536 1537 1539 1540 1542 1543 1544 1545 1546 1546 1547 1547 1547 1548 1548 1549 1549 1549 1549 1549 1550 1549 1549 1550 1549 1548 1547 1547 1547 1547 1547 1547 1547 1546 1545 1545 1544 1544 1543 1542 1541 1540 1539 1538 1537 1536 1535 1533 1532 1531 1530 1529 1529 1527 1526 1525 1523 1522 1520 1519 1518 1516 1515 1513 1512 1510 1508 1507 1506 1504 1503 1502 1500 1498 1497 1496 1495 1493 1493 1491 1491 1490 1489
1532 1534 1535 1536 1538 1539 1541 1542 1543 1544 1544 1545 1545 1546 1546 1546 1547 1547 1548 1548 1548 1548 1548 1548 1548 1548 1548 1547 1547 1547 1546 1546 1546 1546 1545 1545 1544 1543 1543 1542 1541 1541 1540 1538 1538 1536 1535 1534 1533 1532 1531 1530 1529 1528 1527 1526 1525 1524 1523 1522 1520 1519 1517 1516 1515 1513 1512 1510 1509 1508 1506 1505 1504 1502 1501 1499 1498 1497 1496 1494 1493 1492 1491 1491 1490
1531 1532 1534 1536 1537 1538 1539 1540 1541 1542 1543 1543 1544 1544 1545 1545 1545 1546 1546 1546 1546 1546 1546 1546 1546 1546 1546 1546 1545 1545 1545 1545 1544 1544 1543 1543 1542 1541 1541 1540 1539 1539 1538 1537 1536 1535 1533 1532 1531 1530 1529 1529 1528 1527 1526 1525 1524 1524 1523 1521 1520 1518 1517 1516 1515 1513 1512 1511 1509 1508 1507 1505 1504 1503 1502 1500 1499 1498 1496 1495 1494 1493 1492 1491 1491
1530 1531 1533 1534 1536 1537 1538 1539 1540 1540 1541 1542 1542 1543 1543 1543 1544 1544 1544 1544 1544 1544 1544 1544 1544 1544 1544 1544 1544 1543 1543 1543 1542 1542 1541 1541 1540 1540 1539 1538 1537 1536 1535 1534 1534 1533 1531 1530 1529 1528 1527 1526 1525 1525 1524 1523 1523 1522 1521 1521 1519 1517 1516 1515 1514 1513 1512 1510 1509 1508 1507 1505 1504 1503 1502 1500 1499 1498 1497 1496 1495 1493 1493 1492 1491
1529 1530 1531 1533 1534 1535 1536 1537 1538 1539 1539 1540 1540 1541 1541 1542 1542 1542 1542 1543 1543 1542 1542 1542 1542 1542 1542 1542 1542 1542 1541 1541 1540 1540 1539 1539 1538 1538 1537 1536 1536 1535 1533 1532 1531 1530 1529 1528 1527 1526 1525 1524 1523 1522 1522 1521 1520 1519 1519 1518 1517 1515 1514 1514 1513 1512 1511 1510 1508 1507 1506 1505 1504 1503 1501 1500 1499 1498 1497 1496 1495 1494 1493 1492 1491
1528 1529 1530 1532 1533 1534 1535 1536 1536 1537 1538 1538 1538 1539 1539 1540 1540 1540 1540 1541 1541 1541 1541 1541 1540 1540 1540 1540 1540 1539 1539 1539 1538 1538 1538 1537 1537 1536 1535 1534 1534 1533 1532 1530 1529 1528 1527 1525 1524 1523 1522 1522 1521 1520 1519 1519 1518 1517 1516 1516 1514 1513 1513 1512 1511 1510 1509 1508 1507 1506 1505 1504 1503 1502 1501 1500 1499 1498 1496 1496 1495 1494 1493 1492 1492
1526 1528 1529 1530 1531 1532 1533 1534 1535 1535 1536 1536 1537 1537 1538 1538 1538 1538 1538 1538 1538 1538 1538 1538 1538 1538 1538 1538 1537 1537 1537 1537 1537 1536 1536 1535 1534 1534 1533 1532 1531 1530 1530 1529 1527 1526 1524 1523 1521 1520 1519 1518 1518 1517 1517 1516 1515 1514 1514 1513 1512 1511 1510 1509 1509 1508 1507 1506 1505 1504 1503 1502 1501 1500 1499 1499 1498 1497 1496 1495 1494 1493 1492 1492 1491
Wind_Speed
7 7 9 10 10 10 10 10 10 9 9 11 12 11 10 12 12 12 11 11 11 11 11 12 13 13 13 13 13 13 13 13 13 13 13 14 14 12 12 12 13 14 14 15 16 15 16 17 17 18 18 18 19 19 19 19 21 22 21 21 21 20 20 22 26 32 34 33 34 36 36 34 29 26 28 30 29 28 29 29 29 30 32 33 33
9 9 10 11 11 10 10 10 9 10 11 13 13 13 12 13 14 13 12 12 12 13 13 13 13 13 13 13 14 14 14 14 15 14 13 14 14 13 13 14 14 15 15 16 17 17 17 17 18 19 19 19 19 19 20 23 25 26 25 24 25 24 23 23 25 29 33 34 34 35 36 37 36 31 27 29 30 29 29 30 29 30 32 33 33
10 10 10 11 11 10 10 10 10 11 13 14 14 14 14 14 14 14 14 13 13 14 14 14 14 14 15 15 15 16 16 16 17 16 14 13 13 14 14 14 15 15 16 17 17 18 18 18 19 19 19 20 20 21 23 26 27 28 29 28 28 28 27 26 25 26 31 34 35 35 33 31 35 36 31 30 31 31 30 31 30 29 30 32 33
11 11 11 11 11 11 11 11 11 13 15 15 15 15 15 15 15 14 14 14 14 14 14 15 15 15 16 17 17 18 18 17 18 17 15 14 14 13 14 15 15 15 16 17 17 18 18 18 19 19 20 21 21 23 25 27 29 29 30 31 30 29 30 29 28 27 29 33 35 36 33 30 31 35 35 34 34 33 32 32 31 30 31 31 33
11 12 12 11 11 12 12 11 13 15 16 16 16 16 15 16 16 15 15 15 15 15 15 15 16 16 17 18 18 19 19 19 20 18 16 16 15 13 14 15 15 15 16 16 17 17 18 18 18 19 21 21 23 26 27 28 30 31 31 32 31 30 31 31 30 28 28 31 34 35 35 32 30 31 33 34 34 34 34 33 31 30 31 31 33
13 13 13 12 12 13 13 14 16 17 16 16 17 17 16 16 16 17 16 16 17 16 16 16 16 17 19 19 19 20 19 20 20 19 17 16 15 14 14 15 15 15 16 17 17 18 18 18 18 19 21 22 24 25 26 29 32 33 32 32 30 30 31 31 30 29 28 29 31 32 33 32 29 29 30 31 32 33 35 35 32 30 30 30 32
14 14 14 14 13 13 14 17 18 17 17 18 17 17 17 16 17 17 17 17 17 16 16 17 17 18 19 19 20 20 20 21 21 20 18 15 14 15 15 16 16 16 17 17 18 18 19 18 18 20 20 21 24 25 27 31 35 35 34 33 31 30 30 30 29 29 29 29 30 31 31 31 29 29 30 30 30 32 35 36 32 29 29 30 32
16 15 15 15 14 15 17 18 17 18 18 18 18 18 18 18 18 18 18 18 16 15 15 16 16 18 19 20 21 21 21 23 23 22 20 16 13 14 16 16 16 17 17 18 18 19 19 18 18 19 20 22 25 27 30 34 36 36 34 33 32 31 30 29 28 29 30 30 30 30 31 31 30 29 29 30 31 32 33 34 31 29 29 29 30
17 16 16 16 17 18 18 18 18 18 18 18 19 19 19 19 19 18 18 18 17 15 15 14 15 17 19 20 21 21 23 25 24 22 21 17 15 14 15 16 16 17 18 17 18 19 19 19 19 21 24 27 28 30 32 33 33 34 32 31 31 30 29 28 27 28 30 30 29 30 30 31 32 31 29 29 31 32 32 34 35 31 28 28 28
18 18 18 18 19 19 18 18 18 18 18 19 19 19 19 20 19 18 18 18 18 17 16 15 15 16 18 20 21 21 23 24 23 21 19 17 17 16 15 15 16 17 18 18 18 20 21 22 22 22 25 28 31 33 33 32 32 31 29 28 29 28 27 27 27 27 27 27 28 31 32 33 34 34 33 33 33 33 33 34 35 32 28 28 29
19 19 19 18 18 18 18 18 18 18 19 19 18 19 19 20 19 19 18 18 18 17 16 16 15 16 18 19 20 21 22 22 21 19 17 17 18 17 15 15 16 17 17 18 19 21 23 23 22 21 24 27 32 36 35 34 34 32 29 27 25 25 25 25 26 27 27 27 29 31 32 33 34 34 35 36 36 34 33 33 33 32 30 29 29
20 20 19 18 17 17 17 17 17 18 18 18 18 18 19 19 19 19 18 18 18 17 16 16 15 16 18 19 20 21 21 21 21 18 17 18 19 18 16 15 16 17 18 18 18 20 23 23 22 23 26 29 34 38 37 36 35 33 31 27 24 23 23 23 24 26 27 29 30 30 30 32 34 33 33 36 36 36 35 33 32 32 32 30 28
20 20 18 17 17 16 16 16 16 17 17 17 17 18 18 19 19 19 19 18 18 17 16 16 16 15 17 19 20 20 21 21 21 19 18 19 19 18 16 15 16 17 18 18 18 20 22 24 24 27 30 34 38 40 39 37 35 34 32 28 24 23 23 24 26 26 25 26 29 30 29 31 33 34 35 37 39 40 38 35 32 31 32 32 30
19 19 18 18 18 18 17 16 16 16 17 17 18 19 19 20 20 19 19 18 17 15 15 16 17 16 17 19 20 20 21 21 21 20 19 18 19 18 15 14 15 16 17 18 18 19 23 26 26 27 31 38 39 39 39 38 35 35 34 31 28 25 23 26 30 29 26 23 25 28 29 29 30 34 37 38 39 40 39 36 34 31 31 31 28
20 20 19 18 18 18 17 16 16 16 17 18 19 19 20 21 20 19 18 16 15 14 14 15 17 17 18 19 19 20 21 21 22 22 19 17 18 17 14 14 15 15 17 18 17 19 25 29 28 27 29 36 39 39 40 38 35 35 36 34 32 28 25 25 27 30 30 24 21 24 26 26 26 30 34 34 35 37 38 38 37 34 32 30 26
20 20 18 17 16 16 16 16 16 15 17 19 19 20 20 21 20 19 18 16 15 15 15 15 16 17 18 19 19 20 20 21 23 24 21 19 17 15 13 14 15 15 16 18 17 21 28 31 30 28 29 34 38 40 42 38 34 35 37 36 34 32 29 27 25 26 28 25 21 21 22 21 21 22 25 26 27 31 36 36 36 36 33 28 24
19 19 18 17 17 16 16 17 16 16 18 20 20 20 20 20 19 18 17 15 14 14 15 16 17 17 18 19 19 20 21 21 22 24 24 22 19 14 12 14 15 15 16 17 17 21 27 29 30 30 32 35 38 40 43 40 35 36 39 39 38 36 34 32 29 26 26 24 21 19 20 19 16 14 15 17 18 22 27 28 28 29 27 25 25
22 21 21 22 21 19 18 19 18 17 18 19 19 20 20 20 19 18 16 14 12 12 14 15 17 18 18 19 20 20 20 20 21 23 25 24 21 16 11 12 15 16 16 17 17 19 22 26 28 30 32 35 36 37 41 41 38 39 42 42 42 41 38 37 36 31 27 25 22 20 21 21 18 15 16 16 15 15 16 16 19 21 20 22 25
24 24 24 25 24 22 21 20 19 17 18 19 20 20 20 19 18 16 14 13 12 12 12 12 14 17 19 20 20 19 20 20 20 21 23 24 23 19 13 11 14 16 16 17 17 18 19 22 26 28 30 33 35 35 37 39 39 40 41 42 43 44 41 41 40 36 32 29 27 27 26 24 22 21 22 22 21 20 16 9 11 15 15 16 20
24 24 23 23 23 22 22 20 19 17 18 20 20 21 20 19 17 13 12 11 11 12 13 13 13 14 17 18 19 19 19 19 19 20 21 22 23 22 18 16 15 15 16 17 17 18 19 21 24 27 29 32 34 35 35 37 37 38 39 41 42 43 42 42 43 41 39 36 35 35 33 29 26 26 26 26 26 25 23 17 8 6 9 9 9
23 23 22 22 22 22 21 20 19 19 20 21 21 21 20 18 16 14 13 14 14 12 12 12 12 13 14 15 17 19 20 18 17 19 20 21 22 22 21 20 18 15 15 16 18 19 21 23 25 27 28 30 32 34 34 35 35 35 37 38 39 40 42 43 44 45 46 45 43 41 40 36 32 29 28 29 30 30 28 25 20 12 3 2 4
23 23 22 22 22 22 22 22 21 21 22 22 22 21 20 17 16 15 16 16 16 13 11 10 10 10 11 11 13 16 17 16 16 17 19 20 21 21 21 20 19 17 14 15 18 20 22 24 25 26 28 29 29 30 32 35 35 34 34 36 38 39 40 42 45 47 49 50 49 47 46 44 40 36 33 31 30 30 29 28 27 24 18 10 5
23 24 23 23 23 24 24 23 23 23 22 22 21 20 19 17 15 15 14 14 13 12 10 10 9 8 9 9 9 10 11 13 13 14 17 19 19 19 19 19 19 18 14 14 17 20 22 25 26 26 27 27 28 28 29 32 34 34 34 36 38 39 38 38 41 45 48 50 51 51 50 48 44 41 38 35 33 31 30 30 30 30 29 23 17
24 24 25 25 24 24 24 24 24 23 21 19 18 17 16 14 12 11 10 9 10 9 9 8 8 8 8 8 8 8 7 9 11 12 15 17 18 17 18 18 18 18 15 14 16 20 23 25 26 27 27 26 26 26 26 28 31 34 34 35 35 35 36 36 38 42 47 49 49 51 51 49 47 44 41 37 33 31 30 31 31 33 34 32 25
25 25 25 24 23 23 23 22 21 19 17 15 14 13 12 11 10 10 10 9 9 9 8 8 8 8 7 6 6 7 7 7 9 11 13 15 15 16 17 17 18 18 16 15 17 20 23 25 26 26 27 26 25 24 25 26 28 31 33 33 32 32 33 35 39 43 46 47 47 47 49 49 48 46 43 38 34 31 31 32 32 33 35 35 31
26 24 22 21 21 21 20 18 17 15 14 12 12 11 10 10 10 9 9 9 9 8 8 8 7 7 6 6 6 6 8 9 9 11 13 13 13 15 16 17 17 17 16 15 17 18 20 23 24 24 25 25 24 23 25 27 27 29 30 31 31 32 31 33 36 39 42 44 44 44 46 48 48 48 47 44 40 37 35 35 35 34 35 36 35
25 23 21 21 20 19 18 17 15 14 13 11 11 10 9 10 10 9 9 8 8 8 8 8 7 6 5 5 5 6 7 9 11 12 13 14 14 14 16 17 17 17 16 17 19 18 18 20 22 22 23 25 24 22 24 26 26 27 29 29 29 31 31 31 32 34 37 40 42 42 43 45 48 50 50 49 47 43 38 37 37 37 37 37 38
23 22 21 20 18 18 18 17 15 13 12 11 11 11 10 9 9 10 9 9 8 8 7 7 7 6 5 4 4 5 6 9 12 13 14 15 15 15 16 17 17 17 17 18 21 19 17 18 20 20 22 24 25 23 24 26 26 26 28 29 28 30 30 30 30 32 34 37 39 41 42 43 46 48 48 49 49 47 43 40 39 38 38 38 39
23 22 20 18 18 18 17 15 13 13 12 12 13 13 12 10 10 10 10 9 9 9 8 7 7 6 5 5 5 4 5 9 12 13 14 15 16 16 16 17 17 16 17 19 21 19 17 17 19 20 21 24 26 25 25 26 26 26 27 28 28 29 30 29 29 32 33 34 36 40 41 41 42 44 45 45 46 46 46 45 43 41 40 40 39
22 20 19 18 19 17 14 13 13 12 12 12 14 13 12 10 10 10 10 9 8 8 8 7 8 8 6 6 7 7 8 9 11 13 14 15 15 16 15 14 14 14 16 20 20 18 16 17 18 20 20 22 24 25 24 25 27 26 27 28 28 29 30 30 29 30 33 33 34 37 39 39 39 41 42 42 41 42 45 47 45 44 44 43 40
21 19 18 18 18 15 14 14 14 13 13 13 13 12 11 10 10 9 9 8 7 7 7 7 7 7 6 6 7 8 8 9 10 12 13 13 14 15 14 12 12 14 18 21 19 17 16 17 17 18 19 20 22 23 23 24 25 25 26 28 28 28 29 30 29 29 31 33 33 34 36 37 37 38 40 40 39 38 40 44 46 45 45 44 40
20 19 18 18 17 15 14 14 13 13 13 12 12 11 10 9 9 8 8 8 7 6 7 7 6 7 7 6 7 8 8 8 9 10 11 12 12 12 12 12 14 16 19 19 17 15 16 16 17 18 19 19 20 22 22 22 24 24 24 26 28 28 28 28 28 27 28 31 32 33 34 35 35 35 36 38 39 38 38 40 42 43 44 42 40
19 18 19 18 16 14 14 14 13 13 12 11 11 10 8 6 5 4 5 7 6 6 6 7 6 7 7 6 6 7 6 7 8 9 10 11 11 10 11 14 16 18 18 17 15 14 15 16 16 17 18 18 19 21 21 21 22 23 23 24 26 27 27 27 27 27 28 29 30 31 32 32 33 33 33 35 37 39 39 38 37 39 41 41 39
18 18 19 18 15 14 14 13 12 12 11 10 10 9 8 7 6 3 2 6 6 5 6 6 6 6 7 7 7 6 6 7 7 8 9 10 9 9 12 15 16 16 16 15 13 13 14 15 15 16 17 17 18 19 20 20 21 22 22 22 24 27 28 27 27 27 27 28 29 29 30 30 30 32 32 32 33 35 37 38 37 36 37 39 38
17 18 20 18 14 14 14 12 11 11 10 9 9 8 7 7 6 5 4 3 4 4 6 7 6 7 8 8 7 7 6 6 6 7 8 8 8 10 13 13 12 12 12 11 10 11 13 14 15 15 16 17 17 18 19 19 20 21 22 21 23 26 27 27 27 27 26 26 27 28 28 28 28 29 30 31 31 31 32 35 37 35 34 34 35
17 19 20 17 14 13 13 11 11 11 10 9 9 8 7 7 6 5 5 4 3 3 4 6 7 8 8 8 8 8 7 7 7 7 7 7 6 9 11 10 9 9 9 9 10 10 11 12 14 14 15 16 16 17 18 18 18 20 21 21 21 24 26 26 25 26 25 24 25 27 27 27 27 27 26 28 30 30 29 29 32 33 32 32 32
17 19 19 15 13 13 13 11 11 12 11 10 8 7 7 7 6 5 5 5 5 4 4 4 7 10 10 9 9 8 7 7 8 8 7 7 8 10 9 8 8 8 8 8 9 10 10 11 12 13 14 15 15 15 16 17 17 19 21 21 20 22 24 24 23 24 25 24 23 24 25 25 25 25 25 25 26 28 28 27 27 28 29 30 30
17 19 18 15 13 14 12 11 13 14 12 9 8 7 7 7 6 6 5 5 5 4 4 4 5 6 8 9 10 10 9 10 11 11 10 9 9 8 7 6 7 7 7 8 9 9 9 10 11 12 13 13 14 14 15 16 17 18 20 21 20 20 22 22 22 22 23 23 23 23 23 23 23 23 24 23 23 24 25 25 25 25 26 26 27
16 18 19 16 14 14 12 10 11 12 11 9 7 8 8 7 6 7 6 5 5 4 4 4 4 4 4 5 7 8 9 10 10 9 8 7 7 6 5 6 6 6 7 7 8 8 8 9 10 11 12 12 13 13 13 15 16 17 18 20 20 20 21 22 21 21 22 22 22 21 21 21 22 21 21 22 22 21 22 22 22 22 23 23 23
16 18 20 18 15 12 12 10 10 11 11 9 8 8 8 8 7 7 6 6 5 5 4 4 4 4 5 6 5 5 5 6 6 6 6 7 6 6 5 6 6 6 7 7 7 8 8 8 8 9 11 12 12 12 12 14 15 16 17 18 19 19 20 21 21 20 20 20 21 21 20 20 20 20 20 20 20 20 20 20 19 19 19 20 20
15 16 19 19 16 12 11 11 10 10 10 9 8 8 8 8 8 7 7 7 6 6 6 5 5 6 9 10 9 7 5 5 5 6 7 7 7 6 6 6 6 7 6 6 7 8 8 8 8 8 10 11 12 12 12 13 14 14 15 16 17 18 19 19 19 19 19 19 19 20 20 19 18 18 19 19 18 17 17 17 18 17 17 17 17
15 15 18 19 17 13 11 10 10 10 10 9 9 9 8 8 8 8 8 7 7 6 7 6 6 8 11 13 11 9 7 7 6 7 8 8 8 8 8 7 7 7 7 7 7 8 9 10 9 9 10 11 12 12 12 12 12 13 14 15 16 17 17 17 18 18 18 18 18 18 19 19 17 16 17 17 17 16 14 15 16 16 15 13 13
15 14 16 17 16 13 11 10 10 10 10 10 10 9 9 8 8 8 8 8 8 8 8 8 7 8 12 14 14 13 11 9 8 8 9 9 8 9 9 9 8 8 8 9 8 9 10 11 11 10 11 11 12 11 12 12 12 12 13 14 15 16 16 16 17 17 17 17 17 17 18 18 17 16 16 16 16 15 14 13 13 14 14 12 11
15 14 14 15 15 13 12 11 10 10 10 11 10 10 10 9 9 8 9 9 9 8 8 8 8 8 10 14 15 14 11 9 8 9 10 10 10 10 10 10 10 10 10 10 9 10 11 12 12 12 12 12 12 12 12 13 12 12 12 12 13 15 15 15 16 16 16 16 16 16 16 17 17 16 15 15 15 14 13 13 12 12 12 11 9
15 14 14 14 13 13 12 11 11 11 11 11 11 11 11 10 10 9 9 9 9 9 9 9 9 9 10 11 13 12 10 9 10 11 11 11 12 11 11 11 11 11 12 11 10 11 13 14 14 13 14 14 14 13 13 13 13 13 14 13 13 14 14 14 15 15 15 15 15 15 14 14 15 16 15 15 14 13 12 12 12 12 11 11 10
15 13 14 13 12 13 12 12 12 12 11 11 12 11 11 11 11 10 10 10 10 9 9 9 10 10 10 11 12 12 12 12 12 12 12 12 12 12 12 12 12 12 12 12 12 13 15 16 16 15 14 14 15 14 14 13 13 12 14 14 14 14 14 14 14 14 14 14 14 14 13 13 14 14 14 14 13 13 12 11 11 11 10 10 11
15 13 13 13 12 12 12 11 11 11 11 11 12 12 11 11 11 11 11 11 11 11 10 10 11 11 11 12 12 12 13 13 13 13 13 14 14 13 13 13 13 13 13 13 14 15 16 18 19 19 18 17 17 16 16 15 13 12 12 13 14 15 15 14 14 14 14 14 13 13 13 13 12 13 13 13 13 13 12 11 10 10 9 10 10
15 13 13 13 12 12 12 11 11 11 11 11 12 12 12 11 11 11 11 12 12 12 12 12 12 12 12 13 13 13 13 14 14 14 14 15 15 15 15 15 15 15 15 15 16 16 17 18 19 20 20 21 20 19 19 18 16 14 13 13 15 17 18 16 15 15 14 14 14 14 14 13 13 13 13 13 13 13 12 12 11 10 9 9 10
14 13 13 13 12 12 12 11 11 11 12 12 12 13 13 13 12 12 12 12 12 12 12 12 12 13 13 13 13 13 14 14 14 15 15 15 15 15 15 15 15 16 17 18 18 18 18 19 19 20 20 21 21 21 21 21 20 19 17 15 17 20 20 18 18 17 16 15 15 14 14 14 14 13 13 13 13 13 13 12 12 11 9 8 9
13 13 13 13 13 12 12 12 11 11 11 11 12 13 13 13 13 13 13 13 13 13 13 13 13 13 13 13 14 14 14 14 15 15 15 15 16 16 16 17 17 18 19 20 20 20 20 21 22 22 22 22 21 21 21 22 22 22 21 20 21 22 21 20 20 20 18 17 16 15 15 15 15 15 14 14 14 14 14 13 13 12 10 8 8
13 13 12 13 13 12 12 12 12 12 12 12 12 12 13 13 13 13 13 13 13 13 13 13 13 13 14 14 14 14 14 15 16 16 17 18 18 19 20 21 21 21 22 22 23 23 23 24 25 25 25 25 25 24 23 23 22 22 23 23 24 24 22 21 21 21 20 19 19 18 17 16 16 16 16 15 15 15 15 14 14 14 11 9 9
Wind_Direction
118 118 120 120 116 108 101 99 99 96 96 100 101 99 93 89 88 86 84 81 77 74 71 67 61 56 53 47 43 40 36 32 29 25 21 17 12 7 5 6 6 3 360 357 356 352 349 348 347 343 342 344 345 343 341 337 333 330 329 326 320 316 313 308 303 300 297 296 294 288 284 284 287 284 283 286 286 282 277 272 267 260 256 254 252
111 115 120 120 114 106 102 100 95 95 103 105 102 100 98 95 94 91 87 85 82 77 72 68 65 60 56 52 48 45 41 37 33 29 28 27 19 10 9 10 6 3 1 358 356 354 352 351 348 345 346 347 345 343 340 336 335 335 334 331 326 322 319 313 307 303 301 300 299 296 291 287 284 281 282 284 285 284 279 273 269 262 255 253 252
115 117 118 116 112 107 104 101 96 101 109 111 107 103 101 99 96 93 89 85 82 80 74 70 68 63 58 55 51 47 44 41 38 33 34 36 26 15 13 11 7 4 2 360 357 355 354 353 349 347 347 347 345 343 340 337 337 338 336 334 330 325 323 318 310 305 302 302 302 301 300 296 288 281 277 280 284 284 279 275 272 265 258 254 253
118 119 118 114 111 109 106 102 103 110 114 112 108 105 102 100 98 96 92 88 84 82 77 71 67 64 61 56 52 50 46 44 41 36 39 44 33 20 16 11 10 8 3 1 359 357 357 354 350 348 347 347 346 342 341 340 340 340 337 335 332 327 324 320 314 308 302 301 303 304 302 298 293 286 279 278 280 280 279 277 273 266 260 255 253
122 120 118 115 112 109 106 106 113 117 117 113 108 106 104 102 101 97 93 90 87 83 79 73 65 62 61 56 53 50 45 44 44 38 42 49 35 21 19 14 11 9 5 3 1 359 359 356 352 351 350 349 347 344 344 345 345 343 339 336 332 328 324 321 316 311 305 301 303 306 304 300 296 291 285 280 277 277 279 277 272 266 262 257 254
124 120 116 115 112 110 110 116 121 120 117 114 111 109 107 105 103 98 93 91 87 82 79 75 67 62 59 55 53 50 44 44 43 37 42 50 36 21 21 17 12 10 7 6 5 2 360 357 354 353 352 351 348 347 347 348 348 346 343 339 335 330 325 322 320 317 312 306 304 306 305 303 298 292 289 283 277 276 276 272 269 267 262 257 254
124 121 119 117 114 116 121 124 124 121 118 115 113 110 108 106 104 101 98 93 86 81 76 72 66 60 56 52 49 48 45 43 42 37 37 43 34 20 19 18 13 11 10 9 8 5 0 359 357 354 353 351 349 349 349 350 351 350 347 344 341 337 332 327 324 322 319 314 309 307 305 304 300 294 292 289 282 277 271 264 265 267 263 258 254
125 124 124 121 120 125 127 126 124 121 119 117 114 112 108 105 103 102 100 96 92 86 77 70 65 59 55 51 45 42 42 40 39 36 34 40 41 25 18 19 15 13 14 11 9 6 2 1 359 354 354 353 351 352 352 352 352 349 348 349 346 343 339 334 329 328 326 320 312 309 306 305 303 299 297 294 287 281 273 264 266 271 268 262 257
129 129 129 128 130 133 130 126 124 121 119 117 115 113 110 106 103 98 97 96 94 90 82 74 67 59 54 50 45 41 39 37 35 32 33 42 54 40 19 17 18 15 16 14 10 8 4 3 0 357 356 356 356 357 356 354 352 348 348 351 350 345 340 334 329 327 324 319 312 310 308 305 304 303 300 295 290 290 285 273 266 269 270 267 261
134 134 135 133 134 134 129 126 125 122 120 118 114 112 110 107 103 99 98 97 94 91 87 80 70 60 54 50 47 43 41 39 34 32 36 46 58 50 25 17 20 18 16 15 10 8 6 5 2 358 357 355 357 359 357 356 353 349 350 353 350 345 339 331 328 326 322 317 313 311 309 304 302 302 300 296 292 293 292 279 266 264 266 265 262
136 136 134 133 133 131 129 127 125 123 120 117 114 112 109 106 104 102 100 97 94 90 87 82 72 61 56 52 49 46 43 41 36 34 40 50 58 54 33 20 21 20 17 16 11 7 7 6 4 0 357 356 357 357 356 356 355 352 356 358 349 343 341 333 327 326 322 319 316 313 310 306 303 302 300 299 296 293 289 283 273 266 261 258 258
138 137 135 134 132 130 128 126 124 123 120 117 114 112 109 107 105 102 99 96 94 90 85 82 74 64 58 55 53 49 46 43 37 36 44 53 58 55 39 24 23 21 18 16 12 9 7 6 5 3 1 360 359 358 357 356 355 356 360 359 348 343 342 336 329 323 319 321 320 316 313 308 304 303 300 300 299 293 286 280 277 273 265 257 255
137 136 134 133 131 129 128 126 126 125 123 121 119 116 113 110 106 102 99 94 91 88 85 84 79 69 61 57 55 52 48 44 38 35 43 53 58 54 40 27 25 23 18 16 14 10 7 5 5 5 6 5 1 360 359 356 356 0 2 358 351 346 342 340 338 329 322 322 321 316 315 311 305 302 299 299 298 294 286 279 277 279 272 261 255
136 135 135 136 135 133 131 129 128 126 126 125 123 120 117 112 107 102 98 93 88 85 85 85 82 73 65 61 57 53 50 45 39 35 41 52 56 51 41 29 26 24 19 17 15 12 9 7 6 6 7 7 5 2 1 360 0 2 2 360 356 350 344 345 348 343 333 325 322 318 315 311 306 300 298 298 296 292 286 277 272 274 274 266 259
138 137 135 135 135 134 133 132 131 130 130 128 125 122 119 113 108 103 98 94 90 88 85 83 81 76 69 64 60 56 52 47 42 39 43 55 57 48 37 29 27 24 21 19 15 10 8 7 8 10 9 10 12 11 8 8 8 5 4 2 358 354 349 347 351 353 345 332 327 327 320 313 308 300 295 295 295 291 283 274 267 268 272 271 261
138 136 132 131 131 132 134 134 132 132 133 130 127 124 119 113 109 104 100 97 93 90 86 81 79 78 74 67 61 58 54 49 46 43 46 59 64 50 32 28 27 23 21 22 16 7 7 9 12 14 15 17 19 19 16 16 14 8 7 5 1 359 357 351 350 354 352 342 337 338 333 324 316 305 296 293 294 293 286 274 266 264 266 263 253
134 132 131 133 135 137 139 137 134 134 135 132 128 124 119 113 108 104 102 99 93 87 83 79 77 76 75 71 63 58 54 50 48 46 47 57 65 53 28 26 28 23 20 23 19 8 7 11 15 18 22 24 23 20 20 20 17 12 11 10 8 6 5 1 355 352 354 352 349 351 351 346 339 331 322 311 304 302 295 281 270 267 262 251 245
142 143 144 146 145 144 143 139 135 136 136 133 129 124 119 113 110 108 105 101 95 88 82 78 75 72 71 70 64 58 54 50 48 48 47 52 60 54 31 25 27 23 21 22 20 13 8 9 15 21 26 27 24 22 21 21 20 17 15 15 15 13 13 11 4 356 354 355 358 3 4 359 1 10 10 360 350 340 321 289 267 266 260 246 243
155 154 152 151 149 146 143 140 138 140 138 134 129 124 118 113 109 105 102 98 96 94 89 82 76 69 65 65 63 58 53 49 48 49 47 49 56 56 45 38 32 22 19 20 19 17 13 9 15 25 31 30 27 24 22 21 21 20 18 18 18 16 17 17 12 8 4 3 7 13 14 12 11 17 25 26 20 14 5 332 269 258 254 242 238
154 151 149 147 145 143 143 142 142 142 139 134 129 124 120 116 111 108 106 105 104 100 94 87 80 70 61 58 58 56 52 47 45 48 49 46 50 53 51 51 49 30 18 18 19 17 18 16 18 26 32 32 29 26 24 23 22 20 19 20 19 18 19 20 20 20 18 17 17 18 20 23 21 20 27 35 34 29 24 19 359 284 256 240 227
148 146 144 143 143 143 144 144 144 143 139 133 127 121 117 113 112 115 117 115 110 101 91 83 76 69 59 51 50 50 48 45 42 45 48 45 45 48 47 47 51 40 20 18 21 19 19 20 21 27 31 30 27 25 23 24 23 21 20 21 20 20 22 23 24 24 23 24 23 22 22 26 27 26 28 34 36 36 33 31 32 36 27 259 216
145 143 142 142 144 144 144 143 141 138 134 129 124 119 116 112 111 113 112 109 104 98 93 87 77 69 60 47 41 40 37 38 41 44 47 44 41 44 43 40 46 48 29 18 21 21 23 24 25 28 31 27 22 19 17 19 21 21 21 22 22 22 22 22 23 24 24 24 23 23 24 25 26 27 30 33 35 39 41 40 41 48 56 62 79
143 142 143 145 145 145 143 141 138 134 130 125 121 117 114 111 109 108 104 98 95 90 88 85 78 73 67 53 43 35 23 23 32 44 51 46 39 42 43 38 43 49 37 20 19 21 25 28 28 28 29 24 18 13 9 10 13 15 17 16 15 14 14 14 18 21 21 20 21 21 23 24 23 24 28 33 37 40 44 47 46 48 54 61 67
143 144 145 143 142 141 140 138 133 128 123 119 115 112 110 108 106 105 102 96 94 90 85 84 78 71 67 56 45 40 24 11 16 34 50 47 36 38 45 40 40 45 41 28 23 22 24 28 26 24 24 23 17 11 6 5 6 8 9 8 6 8 8 9 14 19 19 18 19 20 21 23 23 24 27 33 39 43 46 49 51 51 52 56 62
144 142 140 138 138 137 135 131 127 121 117 115 112 110 110 110 108 108 105 99 96 91 84 81 77 70 66 60 44 34 27 18 17 30 46 46 32 31 41 41 39 40 37 33 30 22 18 20 21 17 17 20 17 8 4 6 6 5 7 8 7 8 8 8 13 18 18 18 19 19 20 22 24 27 31 34 39 43 46 48 54 57 55 55 60
141 138 137 137 136 135 132 129 125 120 117 116 115 114 113 111 106 101 98 94 92 91 85 79 76 70 64 59 47 29 19 23 32 39 46 49 39 32 35 38 38 36 33 34 37 26 11 11 15 11 8 14 17 9 4 7 8 5 6 9 8 8 8 7 10 14 16 18 19 19 19 21 24 28 33 37 38 42 44 45 50 54 54 55 59
139 139 140 138 136 135 133 129 125 123 121 118 116 114 113 113 109 104 101 96 89 85 82 77 73 71 63 52 46 29 14 23 39 44 46 50 48 41 37 35 36 36 34 35 40 32 11 6 11 9 5 10 15 11 6 7 9 6 6 8 8 7 8 9 10 12 14 17 19 19 18 21 23 27 31 34 37 40 43 44 47 49 50 53 56
141 141 140 138 138 138 133 127 126 126 123 120 117 114 113 120 128 128 124 122 116 106 96 86 76 68 63 63 57 31 11 24 39 44 44 46 47 44 39 33 29 31 32 36 38 31 12 4 8 9 7 10 13 11 7 7 8 7 6 6 7 7 9 11 11 12 12 14 17 18 18 19 21 24 28 31 33 37 41 44 45 47 48 50 52
142 142 141 140 141 140 134 131 133 132 129 133 138 132 124 124 130 128 123 124 125 121 119 119 109 90 76 84 85 63 32 33 40 42 41 42 42 40 37 30 24 25 31 37 36 25 8 4 7 7 7 9 10 9 7 6 6 7 7 7 7 7 8 10 10 10 12 13 14 16 18 19 19 22 26 29 30 34 39 43 45 46 48 49 49
143 144 144 144 144 142 139 138 139 136 133 141 146 139 127 124 125 120 114 112 112 110 110 110 107 99 90 85 82 71 53 43 43 43 41 41 42 41 37 29 25 30 39 40 33 19 6 5 7 7 6 7 7 7 6 5 5 6 7 7 8 7 8 10 10 10 13 15 15 16 19 21 21 22 24 27 29 31 36 42 44 46 48 48 47
146 146 147 148 147 145 144 143 140 135 132 133 135 131 124 121 118 113 110 106 101 98 95 87 83 85 86 79 71 63 53 46 45 46 43 41 44 44 41 37 37 41 43 40 29 14 7 7 7 7 7 7 6 6 6 4 4 5 5 6 8 7 7 10 12 11 12 15 17 17 20 21 22 23 24 26 29 30 33 39 43 45 47 48 47
149 149 151 152 149 147 148 146 142 140 137 134 132 130 124 116 108 101 95 88 81 77 72 67 65 64 60 57 53 49 45 41 42 45 45 44 45 46 45 45 44 44 43 37 22 9 8 9 7 6 7 6 6 6 6 6 5 6 5 5 7 9 8 11 15 15 13 14 16 17 19 21 23 24 25 26 29 31 32 34 38 42 45 46 46
151 153 154 153 150 150 151 149 147 147 147 147 147 146 143 136 123 96 65 54 55 61 57 50 46 45 42 43 43 38 36 38 38 40 43 42 42 46 48 44 38 36 37 32 17 6 8 9 7 6 6 6 5 5 6 7 6 7 8 6 7 13 15 17 22 23 16 13 16 17 18 20 22 23 25 26 28 30 32 33 36 39 43 44 45
155 158 157 153 151 153 152 150 152 153 153 157 161 162 166 168 172 199 318 352 1 13 26 30 36 40 35 33 35 31 30 34 32 33 38 38 37 43 44 36 26 22 24 22 11 4 6 6 5 4 4 4 4 4 6 8 5 7 11 8 7 17 24 24 28 30 20 12 15 19 18 19 20 22 25 26 27 29 31 33 34 37 40 43 46
159 163 159 152 151 155 155 153 156 157 157 160 163 166 172 171 173 193 226 286 321 322 326 340 5 29 28 24 24 23 25 31 30 29 32 29 30 42 40 26 14 12 15 12 5 3 4 3 3 3 1 2 4 3 3 6 4 6 12 10 6 16 25 24 28 34 27 13 14 20 20 18 21 22 24 26 28 30 31 33 34 36 38 41 45
160 163 158 152 152 158 158 156 159 161 161 163 163 165 172 174 176 186 194 199 208 228 266 296 317 341 359 10 15 11 11 20 26 29 28 19 26 44 36 13 360 5 6 360 1 4 2 359 1 2 0 1 3 3 2 4 3 6 14 14 9 16 24 22 23 33 33 22 19 23 20 17 21 23 24 26 29 30 31 33 35 36 38 41 43
161 161 159 156 159 161 157 158 167 169 164 162 165 168 172 179 185 189 188 193 201 199 199 234 280 307 325 340 351 357 7 17 18 22 26 23 30 40 29 357 347 357 355 351 356 1 358 356 358 1 1 1 2 2 2 4 6 9 15 18 16 19 25 23 22 30 34 28 26 28 23 18 19 23 24 24 28 31 32 33 35 35 37 40 43
162 163 161 159 162 163 158 166 182 182 170 163 169 176 180 184 187 190 193 196 203 204 196 204 241 279 301 314 325 338 354 1 1 3 8 9 12 15 360 335 336 345 343 343 349 352 352 352 352 356 360 1 2 3 2 4 9 15 18 19 19 21 24 23 22 27 32 30 28 31 30 22 18 21 23 23 25 30 32 34 37 38 37 39 42
162 168 168 161 160 165 165 172 187 187 177 176 184 185 187 191 192 196 205 205 198 202 210 220 233 240 245 274 306 324 332 334 336 342 343 338 335 333 324 320 326 330 331 336 341 342 346 347 345 349 355 359 2 6 4 4 11 17 19 20 20 21 23 22 19 22 30 30 27 30 34 28 18 19 25 23 20 26 31 32 35 40 41 41 44
160 171 174 165 158 165 171 172 178 181 182 188 195 194 196 202 202 203 208 210 210 215 219 227 239 234 223 237 263 278 278 285 294 296 296 300 305 309 309 309 310 314 321 328 329 331 337 339 337 339 345 352 1 7 7 6 11 14 16 18 19 20 23 23 18 18 25 30 27 26 32 33 22 19 26 26 20 23 31 30 28 33 40 41 44
161 175 181 172 161 165 176 178 178 183 189 195 198 199 202 207 210 212 214 213 216 225 231 237 243 238 241 259 281 285 267 263 272 277 280 286 291 293 294 295 297 302 309 313 313 316 322 327 330 333 336 346 359 6 5 5 8 9 9 11 13 16 20 21 19 18 21 28 28 25 27 32 26 17 21 26 22 22 32 35 27 23 28 35 40
166 176 183 177 168 169 179 185 186 191 196 198 201 205 208 210 213 218 220 221 224 230 237 243 245 247 256 271 289 296 284 269 263 265 272 277 278 278 281 284 286 290 294 299 301 305 312 320 328 330 330 338 350 357 357 358 2 3 3 3 6 11 14 14 16 17 19 23 27 25 23 27 28 20 18 23 22 18 26 37 35 26 23 32 48
169 172 178 179 178 180 186 192 195 199 204 206 209 213 214 216 220 221 221 226 230 233 240 245 245 253 267 277 286 292 292 283 269 263 267 270 270 270 274 278 278 277 283 291 296 299 306 318 326 325 323 328 336 339 341 347 353 355 355 355 357 2 6 7 9 13 13 16 23 25 21 22 24 22 19 22 22 17 16 25 34 33 25 27 45
172 172 174 180 187 191 194 200 203 207 211 212 213 217 218 219 223 226 226 230 233 233 240 247 245 249 263 273 281 290 293 282 267 263 263 266 269 269 270 272 270 267 272 281 284 285 294 308 318 320 321 327 331 329 329 334 337 341 346 348 349 351 354 357 1 5 7 10 16 20 19 18 18 18 19 20 19 17 15 17 23 28 24 19 25
175 177 177 181 190 196 200 207 209 210 214 215 215 219 222 222 224 227 227 230 235 236 240 247 248 246 251 260 271 280 279 267 262 264 263 264 268 269 269 269 268 267 272 278 278 278 286 299 309 313 315 320 324 324 322 321 321 324 331 336 338 340 343 347 351 355 358 3 8 11 13 15 13 11 15 18 15 12 16 18 16 18 18 13 9
178 182 184 186 193 197 201 208 210 210 215 217 217 221 225 224 226 230 230 231 236 240 243 248 250 250 251 253 256 260 261 261 263 265 264 265 267 267 267 268 267 266 269 273 274 277 284 294 302 304 303 305 310 314 316 316 313 311 313 316 320 324 330 337 341 343 345 352 357 358 1 8 8 3 5 12 12 8 13 17 13 12 15 10 1
184 187 189 192 197 200 202 207 210 211 215 218 218 221 224 224 226 230 232 233 237 241 245 250 253 254 256 258 258 259 261 262 263 264 265 266 266 266 266 267 266 265 266 269 271 275 282 291 299 304 305 306 307 307 309 311 307 297 294 297 300 306 316 326 330 330 333 339 342 342 346 355 358 354 354 2 6 5 7 10 7 6 10 5 354
188 191 193 195 199 202 203 208 211 213 216 220 220 221 224 227 230 232 235 237 241 244 248 252 255 256 258 260 261 262 263 264 265 266 267 268 268 268 268 267 266 265 265 269 274 279 283 290 297 302 305 307 308 306 306 307 304 296 289 284 283 290 302 313 317 318 321 326 328 330 334 339 341 341 343 348 353 355 357 359 359 359 1 356 347
191 194 198 199 202 206 207 210 215 217 218 222 224 225 227 230 234 237 240 243 245 248 250 253 255 258 260 262 263 265 266 267 268 268 269 269 269 270 270 270 269 268 269 273 280 289 294 298 302 304 305 307 309 308 306 305 303 300 294 284 280 287 298 305 308 309 312 316 318 321 324 324 325 327 331 334 337 339 342 345 347 348 351 351 341
194 198 202 204 206 211 214 215 218 221 222 224 226 228 230 233 235 239 242 245 247 250 254 256 258 260 262 263 265 266 268 269 271 272 273 273 273 274 274 275 275 276 275 276 280 285 291 296 300 302 304 307 308 309 308 306 303 301 298 291 287 291 296 299 300 302 305 307 309 312 312 312 313 316 318 319 321 322 324 327 330 332 339 345 333
202 204 207 210 212 215 218 221 224 226 227 228 230 231 233 235 237 239 242 245 248 251 255 257 259 261 263 265 266 267 270 273 276 277 278 278 278 278 278 278 278 279 279 278 277 278 282 289 293 296 299 302 303 305 306 306 304 302 300 296 293 293 294 294 294 296 298 300 301 302 303 303 304 306 307 308 310 310 311 313 315 317 323 330 321